Helicity
45 74 68 74 90 115 212 113 157 128 131 200 155 147 114 105 146 82 72 67 69 78 107 133 134 129 129 131 138 155 156 128 112 108 111 104 95 100 93 85 72 68 66 61
49 63 52 114 123 194 295 188 175 174 156 195 118 136 112 83 91 83 67 53 53 80 136 141 151 147 136 148 158 162 146 133 124 117 122 119 108 100 99 80 76 74 74 73
47 64 95 96 76 138 206 232 171 164 114 173 220 120 100 95 81 75 67 60 60 86 129 139 152 149 156 168 170 173 178 157 136 128 132 115 117 100 89 80 77 84 81 82
84 45 65 87 90 79 110 158 213 117 106 146 118 148 62 51 77 87 73 90 118 126 147 165 176 177 181 192 216 211 186 159 133 119 107 99 107 112 104 97 95 85 87 94
51 59 70 94 117 104 183 122 138 137 142 190 118 166 150 197 77 77 93 93 118 149 182 195 193 216 229 253 234 209 168 141 138 122 110 112 108 112 102 92 93 92 94 94
66 33 72 105 62 91 70 112 107 140 186 201 122 166 129 95 115 122 145 125 144 169 179 208 231 259 271 240 220 185 152 147 133 118 114 114 117 107 103 103 97 99 109 112
27 41 41 60 75 61 91 110 202 203 207 204 165 150 162 162 133 131 128 127 132 142 169 217 222 227 212 197 188 164 139 127 119 118 119 114 107 109 104 101 101 116 121 130
37 43 39 57 104 108 93 142 262 205 183 135 125 123 114 187 187 134 136 132 131 127 147 155 190 197 191 175 146 130 125 131 118 110 103 101 101 97 101 112 127 132 138 142
32 21 17 54 68 78 30 72 95 178 131 143 62 92 86 99 121 156 161 132 142 156 164 176 177 174 148 127 119 120 121 108 94 88 91 95 100 111 120 120 119 125 128 127
33 36 28 21 32 19 47 74 77 117 137 120 58 90 120 86 117 140 137 142 154 163 177 173 155 134 128 124 120 114 105 97 94 102 107 114 108 106 112 118 123 134 133 122
20 18 2 6 13 32 13 27 60 93 124 159 101 45 113 94 87 101 120 121 123 128 126 128 133 136 127 121 112 109 112 119 127 118 121 119 127 132 137 137 135 129 132 125
15 8 -4 -5 11 25 46 69 80 63 52 63 110 140 18 48 68 84 95 102 110 117 136 159 170 174 174 165 164 166 164 182 176 155 153 168 166 161 162 169 159 145 136 141
0 9 -21 -17 -8 -4 25 16 54 74 78 58 87 60 56 73 82 75 67 81 93 132 172 196 197 219 234 236 234 228 219 204 186 179 184 196 196 182 170 162 159 162 167 168
-22 -1 17 9 21 25 14 19 29 53 71 48 50 47 11 31 28 55 94 120 154 189 222 234 241 237 229 240 244 228 207 181 184 201 213 206 175 158 154 157 173 190 194 187
-12 -10 -21 -2 4 -7 28 22 20 58 75 78 30 47 114 114 76 97 138 160 175 189 210 229 236 238 243 221 194 181 179 184 196 206 195 179 159 158 166 180 167 145 133 124
13 -24 -56 -53 -13 -9 -2 5 20 27 25 10 16 13 119 158 199 167 143 162 174 193 225 240 229 199 189 178 164 154 167 178 165 171 157 132 123 127 136 119 123 128 122 116
44 -25 -77 -78 -84 -61 -61 12 48 93 98 76 95 99 159 191 134 137 150 150 175 186 183 168 165 170 157 153 138 152 157 146 150 132 110 115 121 112 104 101 95 90 82 76
91 79 64 27 1 -26 69 88 92 36 72 62 135 168 171 171 164 149 129 105 135 138 144 149 155 152 155 156 164 155 143 139 142 140 123 108 104 113 97 91 99 90 98 117
133 121 113 97 73 32 11 92 107 90 80 82 85 133 150 153 155 183 142 123 128 130 129 139 165 189 191 186 180 153 155 156 142 130 130 122 109 105 101 108 115 121 133 148
86 102 141 180 142 108 157 116 95 106 107 134 129 131 141 155 154 196 133 129 129 135 190 213 220 217 207 205 157 146 145 151 155 146 119 106 101 103 102 112 124 134 128 125
137 133 112 118 177 172 218 182 154 176 162 123 133 142 148 170 229 187 144 145 168 196 218 246 239 224 216 161 150 162 162 154 138 108 95 89 87 87 85 104 128 150 148 141
133 150 162 156 187 116 143 169 148 160 152 139 143 145 153 172 166 145 140 163 198 251 262 236 197 196 173 165 157 148 134 119 98 84 81 76 83 118 140 141 135 129 134 145
167 172 223 174 214 201 117 162 164 157 161 169 165 153 142 152 152 146 160 193 235 220 214 196 183 183 156 140 134 117 100 89 79 81 85 105 126 140 127 135 135 155 148 145
209 180 218 215 114 138 156 159 158 172 204 213 181 147 137 134 137 162 193 227 206 197 201 188 170 160 152 128 103 83 86 84 94 100 100 124 137 112 116 131 142 167 158 147
194 260 141 154 149 184 136 88 142 194 230 215 199 163 143 173 191 192 200 191 205 206 181 169 159 144 122 98 83 88 98 109 113 108 107 130 130 123 107 113 144 169 137 132
290 229 253 176 150 152 171 87 186 186 175 180 182 178 188 186 211 193 205 216 195 185 169 153 131 107 91 87 86 98 113 116 109 107 129 128 118 116 109 120 136 113 67 51
Wind_Speed
38 45 63 66 67 62 70 82 77 70 56 70 71 71 57 47 45 41 37 27 23 20 19 20 21 19 18 16 15 17 20 23 28 31 31 31 31 30 31 33 35 37 39 41
35 48 51 48 60 67 67 77 74 60 57 67 70 77 63 51 52 42 36 32 25 23 23 26 25 22 21 19 17 18 21 23 28 31 31 33 30 30 31 31 34 36 38 41
39 36 40 48 61 69 67 71 73 68 60 59 63 81 72 62 55 51 48 43 35 32 30 27 26 24 23 22 20 21 22 25 29 29 30 30 30 30 31 30 32 35 37 40
42 34 41 51 60 61 74 64 62 63 60 79 63 86 76 62 61 54 50 45 43 35 31 27 26 26 24 24 22 22 23 26 28 27 28 30 34 35 33 32 33 35 36 39
35 34 40 47 49 49 53 50 57 57 65 63 62 72 64 47 64 59 50 43 39 35 32 29 28 27 25 24 25 24 24 27 28 27 28 32 33 34 32 33 36 35 35 38
36 30 36 40 41 44 41 45 47 50 57 76 62 69 72 57 55 40 40 38 38 36 33 31 29 26 26 26 26 26 29 30 27 27 28 30 32 32 35 36 37 36 37 39
31 33 34 38 43 37 42 50 59 68 72 77 60 65 65 45 41 37 37 36 37 34 31 29 27 26 26 26 28 30 30 30 27 28 28 30 32 35 38 38 39 40 42 44
35 42 37 38 41 42 48 52 59 69 75 70 53 72 63 47 40 34 34 32 30 28 26 25 25 25 26 28 29 30 29 29 28 28 29 32 35 38 38 40 42 44 47 47
39 38 37 37 40 41 44 58 43 52 50 62 58 63 48 40 40 38 35 32 30 27 24 24 24 26 27 28 28 28 28 28 28 29 32 35 37 39 41 42 44 46 46 47
34 40 38 42 44 44 44 42 54 49 57 63 55 60 59 49 43 35 32 28 26 25 25 26 27 28 29 29 28 27 28 30 31 33 36 37 39 40 43 44 46 48 50 50
37 41 38 45 53 47 47 49 49 48 50 55 58 52 42 40 35 33 29 28 26 26 27 27 29 31 31 30 30 30 32 34 36 37 37 39 41 42 44 47 49 50 52 53
36 38 43 43 44 47 50 48 48 56 54 53 54 52 33 31 29 26 24 24 24 25 27 28 29 30 31 31 32 34 35 36 37 38 39 41 43 45 47 50 52 52 54 55
33 39 41 40 43 50 49 51 50 47 50 57 58 51 35 32 30 27 24 24 26 27 28 26 27 29 31 33 35 36 36 38 38 38 40 42 45 47 50 51 53 55 57 59
31 39 45 43 36 35 41 46 47 49 57 58 55 55 38 34 33 31 30 28 28 28 28 28 28 30 32 33 34 35 36 38 39 40 42 44 47 50 52 55 57 60 62 64
28 36 41 51 53 53 55 51 40 35 43 53 51 52 52 42 39 34 29 27 27 28 28 30 31 31 31 32 34 36 37 39 41 43 46 49 52 54 58 61 62 63 64 65
18 30 38 48 50 56 64 65 62 56 59 68 69 73 49 37 41 33 32 31 32 31 30 29 30 29 30 32 34 37 40 42 44 47 51 53 57 61 63 64 65 67 69 71
13 22 35 30 43 51 65 61 36 48 45 50 55 55 39 40 42 40 35 33 31 28 26 26 27 29 30 34 36 39 41 44 49 53 56 59 61 63 65 67 70 72 75 77
28 29 50 21 51 16 42 39 46 25 41 37 44 45 43 42 40 38 30 25 24 22 23 25 28 30 32 34 38 42 46 50 53 57 59 61 65 69 71 74 76 79 81 84
23 31 42 40 35 70 73 43 43 40 49 36 39 36 38 35 33 37 28 25 24 23 25 27 27 30 34 38 42 47 50 52 54 58 62 66 70 75 78 83 86 85 89 91
34 35 33 40 53 55 47 40 38 41 52 35 36 34 34 30 45 41 25 25 25 25 26 30 30 34 38 41 45 49 54 57 62 65 68 71 75 78 84 87 89 90 91 95
39 37 30 38 52 57 48 41 39 53 56 36 34 31 29 39 42 29 26 30 29 30 31 30 33 40 41 41 46 54 58 63 65 68 71 74 77 82 83 86 89 92 94 95
42 42 43 41 51 65 35 37 45 45 37 33 33 32 34 37 37 35 34 33 31 32 34 35 38 41 40 45 51 57 62 63 65 69 76 79 81 82 84 87 87 88 90 92
54 45 53 45 52 48 38 50 45 42 38 36 36 37 38 41 41 37 35 32 33 34 35 37 40 43 46 49 54 62 65 67 72 76 80 81 83 83 81 82 84 85 84 86
52 49 56 60 54 54 50 45 43 41 41 38 42 41 40 42 38 35 32 33 33 34 37 39 43 47 51 54 59 63 67 71 76 81 82 82 84 82 78 77 77 78 80 82
52 42 53 58 59 57 51 45 41 39 40 42 41 41 40 38 35 32 33 34 35 36 38 41 47 52 57 59 63 67 72 75 79 80 80 81 77 77 78 74 74 73 70 71
49 54 60 67 63 55 59 42 39 39 41 40 39 38 35 32 32 31 34 34 36 38 42 47 51 56 60 64 68 72 73 73 77 79 78 76 75 73 72 74 76 66 64 64
Wind_Direction
251 249 236 235 236 237 241 234 238 237 246 241 244 249 256 260 262 267 272 276 280 283 286 290 295 303 311 319 329 339 343 344 344 343 343 346 347 355 360 3 4 5 5 4
257 252 246 249 240 240 241 233 236 242 247 243 246 249 256 259 260 266 274 277 280 282 282 288 292 296 301 308 320 331 336 341 341 341 343 344 348 352 356 360 1 0 360 360
259 268 257 250 240 234 239 237 237 244 243 249 250 251 253 259 263 267 273 278 279 277 280 285 289 292 297 302 312 322 332 337 339 340 342 344 348 351 349 353 354 354 356 356
263 283 257 248 238 236 236 242 247 240 241 242 249 249 252 256 262 265 271 274 277 278 282 284 288 292 295 302 315 322 330 334 337 338 337 334 335 336 344 348 349 350 352 352
277 276 255 245 239 239 242 246 242 244 243 248 249 250 255 258 261 264 269 274 278 279 281 284 287 292 299 306 310 320 328 331 335 336 336 333 334 339 344 344 342 345 347 346
286 277 259 251 247 243 249 241 241 245 247 244 248 250 252 260 267 269 274 277 281 283 285 287 291 294 299 306 310 316 320 326 334 336 337 335 336 337 337 337 338 339 339 339
275 255 259 249 240 242 245 231 233 237 239 243 251 253 254 270 274 276 280 284 288 290 288 289 291 293 298 303 309 315 319 323 330 333 336 336 334 333 332 334 334 333 333 332
246 240 247 248 242 237 237 236 238 239 240 245 256 253 259 270 277 287 291 294 297 299 299 296 297 299 302 306 311 316 320 324 329 331 331 331 331 330 332 331 331 329 328 329
227 243 248 246 243 242 239 237 254 254 257 250 256 262 273 277 280 283 289 294 297 301 303 304 306 308 309 311 315 319 323 326 328 328 327 327 328 328 328 329 328 327 328 327
231 226 242 241 240 243 247 257 244 253 251 253 262 264 266 273 275 284 288 293 299 303 306 309 311 313 316 319 323 325 326 326 325 324 324 326 327 327 328 328 327 327 327 327
223 212 228 227 229 243 246 249 252 260 261 261 264 272 287 284 285 283 289 293 296 300 304 309 313 318 321 324 326 326 325 323 323 325 327 327 328 329 328 327 327 327 327 327
238 215 203 226 241 241 247 253 257 255 260 267 273 276 305 303 299 296 295 297 301 303 306 314 321 327 329 330 330 327 326 327 328 329 329 330 330 330 330 329 329 329 327 326
244 213 205 230 242 241 255 256 260 266 272 268 272 282 301 303 300 299 298 299 301 305 311 321 327 330 333 332 331 333 334 333 335 335 334 334 334 333 332 332 331 330 328 326
182 224 218 230 259 269 268 267 266 266 268 272 276 283 296 297 298 298 299 301 305 308 312 318 324 327 330 335 338 340 342 343 343 342 341 339 337 336 335 333 331 329 328 326
167 209 226 244 249 250 259 268 278 272 273 279 286 287 292 294 296 297 302 305 307 308 309 312 315 324 330 335 339 342 343 343 342 340 338 337 336 335 333 331 329 328 327 325
109 199 228 247 267 261 256 260 269 276 277 276 279 280 295 304 306 303 300 299 300 302 306 313 318 326 331 335 337 338 338 338 339 337 335 335 333 331 330 329 328 327 324 322
56 193 218 204 234 250 264 250 282 287 293 290 288 297 303 301 304 304 303 302 302 305 308 314 320 326 331 332 334 334 336 336 334 333 332 331 331 330 329 328 326 324 322 320
338 335 295 309 289 279 309 316 305 288 299 298 297 302 306 308 313 314 313 308 308 310 313 317 321 325 329 333 334 334 333 332 331 331 332 332 331 329 328 327 325 323 321 319
327 323 317 318 316 278 281 314 310 310 306 305 304 306 310 316 320 317 319 316 315 315 317 321 326 328 330 330 332 332 331 332 332 332 331 331 330 328 327 325 324 323 321 319
323 315 314 315 307 306 315 322 325 319 307 315 310 307 308 314 305 312 319 322 322 323 326 324 329 330 330 332 333 332 330 330 330 331 331 330 330 328 326 325 324 323 322 320
322 316 301 303 305 307 314 317 321 306 310 318 319 318 316 312 318 329 326 323 323 322 323 331 331 327 331 334 334 330 330 330 331 331 330 330 329 327 327 326 326 325 324 323
314 313 311 309 307 306 323 320 311 317 324 321 320 319 316 320 321 321 320 320 322 324 327 328 328 330 334 334 333 330 329 331 331 331 329 329 329 329 329 328 328 328 328 327
306 303 308 304 306 314 315 312 315 317 314 316 318 318 316 316 317 319 320 321 323 325 327 330 330 330 332 332 332 329 330 331 331 330 330 330 331 331 332 332 332 332 332 331
305 305 302 305 306 303 304 307 310 311 312 313 316 316 315 315 317 318 320 322 324 327 327 328 328 328 329 331 331 330 331 331 331 330 331 332 332 333 335 335 336 335 335 335
304 307 306 301 303 307 304 302 303 305 310 312 315 316 315 316 317 319 321 323 325 327 329 329 328 328 328 330 330 331 331 331 331 331 332 333 334 335 335 337 337 337 338 338
296 295 296 299 308 304 307 301 302 302 306 309 313 317 321 321 321 323 323 325 327 327 329 328 329 328 328 329 329 330 332 333 333 332 334 335 335 336 337 337 337 340 339 341